x

8537121 - Ship John Shoal, Nj (sjsn4) Weather Station

5:54pm - Mon 22nd Oct 2018 All times are EDT. -4 hours from GMT.

  • Wind
    13mph, 16mph gusts
  • Sea Temp 63°f
  • Air Temp 55°f
  • Sea Pressure 1021.7mb
  • 8537121 - Ship John Shoal, Nj
  • 8537121 - Ship John Shoal, Nj

More Historic Weather Station data

Upgrade to MSW Pro to gain access to the past 30 days of data for over 8000 Wavebouys and Weather Stations around the globe.

Join

Comparision Forecast

View Surf forecast
   
Mon 10/22 5:54pm 13 16 mph 1021.7mb 63f 55f
5:48pm 14 17 mph 1021.6mb 63f 55f
5:42pm 14 16 mph 1021.7mb 63f 55f
5:36pm 15 18 mph 1021.7mb 63f 55f
5:30pm 15 17 mph 1021.8mb 63f 55f
5:24pm 16 22 mph 1021.8mb 63f 55f
5:18pm 20 21 mph 1021.8mb 63f 55f
5:12pm 17 20 mph 1021.8mb 63f 55f
5:06pm 17 23 mph 1021.8mb 63f 55f
5:00pm 20 22 mph 1021.7mb 63f 55f
4:54pm 17 21 mph 1021.7mb 63f 55f
4:48pm 18 21 mph 1021.7mb 63f 55f
4:42pm 17 18 mph 1021.8mb 63f 55f
4:36pm 16 18 mph 1021.8mb 63f 55f
4:30pm 18 21 mph 1021.9mb 63f 55f
4:24pm 15 20 mph 1021.9mb 63f 55f
4:18pm 14 17 mph 1021.9mb 63f 55f
4:12pm 15 20 mph 1021.9mb 63f 55f
4:06pm 10 16 mph 1022mb 63f 55f
4:00pm 10 14 mph 1022.1mb 63f 55f
3:54pm 11 14 mph 1022.1mb 63f 55f
3:48pm 14 17 mph 1022.1mb 63f 54f
3:42pm 13 15 mph 1022.2mb 63f 55f
3:36pm 11 14 mph 1022.3mb 63f 55f
3:30pm 10 15 mph 1022.3mb 63f 55f
3:24pm 13 15 mph 1022.3mb 63f 54f
3:18pm 14 17 mph 1022.4mb 63f 54f
3:12pm 11 14 mph 1022.4mb 63f 54f
3:06pm 8 15 mph 1022.6mb 63f 54f
3:00pm 11 14 mph 1022.6mb 63f 54f
2:54pm 10 14 mph 1022.7mb 63f 53f
2:48pm 10 13 mph 1022.8mb 63f 53f
2:42pm 10 15 mph 1022.9mb 63f 53f
2:36pm 11 14 mph 1023mb 63f 52f
2:30pm 13 15 mph 1023.1mb 62f 52f
2:24pm 9 13 mph 1023.2mb 62f 52f
2:18pm 10 13 mph 1023.3mb 62f 52f
2:12pm 6 15 mph 1023.4mb 62f 51f
2:06pm 10 15 mph 1023.4mb 62f 51f
2:00pm 10 14 mph 1023.6mb 62f 50f
1:54pm 9 11 mph 1023.7mb 62f 50f
1:48pm 10 11 mph 1023.8mb 62f 50f
1:42pm 9 10 mph 1024mb 62f 50f
1:36pm 9 11 mph 1024.1mb 62f 50f
1:30pm 7
mph
1024.3mb 62f 50f
1:24pm 7 14 mph 1024.3mb 62f 50f
1:18pm 11 13 mph 1024.4mb 62f 50f
1:12pm 9 10 mph 1024.5mb 62f 50f
1:06pm 8 11 mph 1024.7mb 62f 49f
1:00pm 9 11 mph 1024.7mb 62f 49f
12:54pm 3 7 mph 1024.9mb 62f 51f
12:48pm 3 7 mph 1025.1mb 62f 51f
12:42pm 2 3 mph 1025.1mb 62f 50f
12:36pm  -  2 mph 1025.3mb 62f 50f
12:30pm  -  1 mph 1025.4mb 62f 49f
12:24pm  -  3 mph 1025.5mb 62f 50f
12:18pm 1 5 mph 1025.6mb 62f 50f
12:12pm  -  2 mph 1025.6mb 62f 49f
12:06pm 2 5 mph 1025.7mb 62f 49f
12:00pm 3 5 mph 1025.8mb 62f 49f
11:54am 2 5 mph 1025.9mb 62f 48f
11:48am 2 5 mph 1026mb 62f 49f
11:42am 5 6 mph 1026mb 62f 48f
11:36am 6 8 mph 1026.1mb 62f 48f
11:30am 3 5 mph 1026.1mb 62f 48f
11:24am 5 7 mph 1026.2mb 62f 48f
11:18am 7 9 mph 1026.2mb 62f 47f
11:12am 7 9 mph 1026.3mb 62f 47f
11:06am 6 8 mph 1026.4mb 62f 47f
11:00am 6 8 mph 1026.4mb 62f 47f
10:54am 6 9 mph 1026.4mb 62f 47f
10:48am 8 10 mph 1026.4mb 62f 47f
10:42am 9 10 mph 1026.4mb 62f 47f
10:36am 8 10 mph 1026.4mb 62f 47f
10:30am 8 10 mph 1026.4mb 62f 46f
10:24am 8 11 mph 1026.3mb 62f 46f
10:18am 7 10 mph 1026.3mb 62f 47f
10:12am 6 10 mph 1026.4mb 62f 46f
10:06am 7 9 mph 1026.4mb 62f 46f
10:00am 7 9 mph 1026.5mb 62f 46f
9:54am 8 9 mph 1026.6mb 62f 46f
9:48am 8 9 mph 1026.5mb 62f 46f
9:42am 7 9 mph 1026.4mb 62f 46f
9:36am 6 7 mph 1026.3mb 62f 46f
9:30am 7 9 mph 1026.3mb 62f 46f
9:24am 8 9 mph 1026.4mb 62f 46f
9:18am 8 10 mph 1026.4mb 62f 46f
9:12am 9 10 mph 1026.4mb 62f 46f
9:06am 7 9 mph 1026.4mb 62f 46f
9:00am 8 9 mph 1026.4mb 62f 46f
8:54am 8 10 mph 1026.4mb 62f 45f
8:48am 9 10 mph 1026.3mb 62f 44f
8:42am 9 10 mph 1026.3mb 62f 44f
8:36am 9 11 mph 1026.2mb 62f 45f
8:30am 8 11 mph 1026.1mb 62f 45f
8:24am 10 11 mph 1026.1mb 62f 45f
8:18am 9 13 mph 1026mb 62f 44f
8:12am 11 13 mph 1025.9mb 62f 45f
8:06am 11 14 mph 1025.9mb 62f 45f
8:00am 13 14 mph 1025.9mb 62f 45f
7:54am 13 14 mph 1025.9mb 62f 45f
7:48am 13 15 mph 1025.8mb 62f 45f
7:42am 13 14 mph 1025.7mb 62f 45f
7:36am 13 14 mph 1025.7mb 62f 44f
7:30am 13 15 mph 1025.6mb 62f 44f
7:24am 13 15 mph 1025.5mb 62f 44f
7:18am 11 14 mph 1025.6mb 62f 44f
7:12am 11 14 mph 1025.6mb 62f 43f
7:06am 13 15 mph 1025.6mb 62f 44f
7:00am 14 15 mph 1025.6mb 62f 44f
6:18am 9 11 mph 1025.1mb 62f 44f
6:12am 10 11 mph 1025.1mb 62f 44f
6:06am 9 13 mph 1025mb 62f 44f
6:00am 10 13 mph 1024.9mb 62f 44f
5:54am 11 14 mph 1024.9mb 62f 45f
5:48am 11 13 mph 1024.9mb 62f 45f
5:42am 11 13 mph 1025mb 62f 45f
5:36am 10 13 mph 1025mb 62f 45f
5:30am 11 15 mph 1024.9mb 62f 44f
5:24am 14 16 mph 1024.8mb 62f 45f
5:18am 13 15 mph 1024.8mb 62f 44f
5:12am 9 18 mph 1024.8mb 62f 42f
5:06am 14 20 mph 1024.7mb 62f 43f
5:00am 15 20 mph 1024.7mb 62f 43f
4:54am 11 14 mph 1024.6mb 62f 46f
4:48am 11 14 mph 1024.6mb 62f 45f
4:42am 10 13 mph 1024.6mb 62f 45f
4:36am 10 14 mph 1024.6mb 62f 46f
4:30am 11 14 mph 1024.6mb 62f 46f
4:24am 8 15 mph 1024.6mb 62f 46f
4:18am 9 15 mph 1024.6mb 62f 46f
4:12am 11 15 mph 1024.6mb 62f 46f
4:06am 10 16 mph 1024.6mb 62f 46f
4:00am 10 15 mph 1024.5mb 62f 45f
3:54am 13 15 mph 1024.5mb 62f 44f
3:48am 13 16 mph 1024.7mb 62f 44f
3:42am 14 16 mph 1024.6mb 62f 44f
3:36am 10 13 mph 1024.5mb 62f 44f
3:30am 11 14 mph 1024.5mb 62f 44f
3:24am 13 14 mph 1024.5mb 62f 44f
3:18am 11 13 mph 1024.4mb 62f 44f
3:12am 10 13 mph 1024.4mb 62f 45f
3:06am 10 13 mph 1024.4mb 62f 44f
3:00am 9 13 mph 1024.5mb 62f 45f